TimePST,TemperatureF,Dew PointF,Humidity,Sea Level PressureIn,VisibilityMPH,Wind Direction,Wind SpeedMPH,Gust SpeedMPH,PrecipitationIn,Events,Conditions,WindDirDegrees,DateUTC
12:15 AM,24.8,24.8,100,30.51,0.2,Calm,Calm,-,N/A,Fog,Light Freezing Fog,0,2013-01-14 08:15:00
12:55 AM,24.8,23.0,93,30.50,9.0,Calm,Calm,-,N/A,,Clear,0,2013-01-14 08:55:00
1:15 AM,24.8,23.0,93,30.51,10.0,South,3.5,-,N/A,,Partly Cloudy,180,2013-01-14 09:15:00
1:35 AM,24.8,23.0,93,30.50,10.0,Calm,Calm,-,N/A,,Mostly Cloudy,0,2013-01-14 09:35:00
1:55 AM,24.8,23.0,93,30.50,10.0,Calm,Calm,-,N/A,,Mostly Cloudy,0,2013-01-14 09:55:00
2:15 AM,24.8,23.0,93,30.50,10.0,SSW,4.6,-,N/A,,Partly Cloudy,200,2013-01-14 10:15:00
2:35 AM,24.8,23.0,93,30.51,10.0,SSW,3.5,-,N/A,,Scattered Clouds,210,2013-01-14 10:35:00
2:55 AM,24.8,23.0,93,30.51,10.0,SSW,3.5,-,N/A,,Partly Cloudy,210,2013-01-14 10:55:00
3:15 AM,24.8,23.0,93,30.51,10.0,South,4.6,-,N/A,,Clear,190,2013-01-14 11:15:00
3:35 AM,24.8,23.0,93,30.52,10.0,South,5.8,-,N/A,,Scattered Clouds,170,2013-01-14 11:35:00
4:15 AM,24.8,23.0,93,30.52,1.5,South,5.8,-,N/A,,Overcast,180,2013-01-14 12:15:00
4:35 AM,24.8,24.8,100,30.51,1.5,South,4.6,-,N/A,,Overcast,190,2013-01-14 12:35:00
4:55 AM,24.8,24.8,100,30.51,2.0,South,5.8,-,N/A,,Overcast,170,2013-01-14 12:55:00
5:15 AM,24.8,24.8,100,30.52,5.0,South,5.8,-,N/A,,Overcast,190,2013-01-14 13:15:00
5:35 AM,26.6,24.8,93,30.52,5.0,South,4.6,-,N/A,,Overcast,180,2013-01-14 13:35:00
5:55 AM,26.6,24.8,93,30.52,5.0,South,4.6,-,N/A,,Overcast,190,2013-01-14 13:55:00
6:15 AM,26.6,24.8,93,30.52,5.0,South,4.6,-,N/A,,Overcast,180,2013-01-14 14:15:00
6:35 AM,26.6,26.6,100,30.54,5.0,Calm,Calm,-,N/A,,Overcast,0,2013-01-14 14:35:00
6:55 AM,26.6,26.6,100,30.52,5.0,SW,4.6,-,N/A,,Overcast,230,2013-01-14 14:55:00
7:15 AM,26.6,24.8,93,30.53,5.0,SSW,3.5,-,N/A,,Overcast,200,2013-01-14 15:15:00
7:35 AM,26.6,26.6,100,30.52,5.0,SSW,3.5,-,N/A,,Overcast,200,2013-01-14 15:35:00
7:55 AM,26.6,26.6,100,30.52,7.0,South,6.9,-,N/A,,Overcast,180,2013-01-14 15:55:00
8:15 AM,26.6,26.6,100,30.53,5.0,South,8.1,-,N/A,,Overcast,180,2013-01-14 16:15:00
8:35 AM,28.4,26.6,93,30.54,5.0,SSE,5.8,-,N/A,,Overcast,160,2013-01-14 16:35:00
8:55 AM,28.4,26.6,93,30.53,5.0,South,8.1,-,N/A,,Overcast,190,2013-01-14 16:55:00
9:15 AM,28.4,26.6,93,30.54,5.0,South,5.8,-,N/A,,Overcast,190,2013-01-14 17:15:00
9:35 AM,28.4,26.6,93,30.54,5.0,South,8.1,-,N/A,,Overcast,190,2013-01-14 17:35:00
9:55 AM,28.4,26.6,93,30.54,5.0,South,6.9,-,N/A,,Overcast,190,2013-01-14 17:55:00
10:15 AM,28.4,26.6,93,30.54,4.0,South,8.1,-,N/A,,Overcast,170,2013-01-14 18:15:00
10:35 AM,28.4,28.4,100,30.54,5.0,SSE,5.8,-,N/A,,Overcast,160,2013-01-14 18:35:00
10:55 AM,30.2,28.4,93,30.54,5.0,SSE,6.9,-,N/A,,Overcast,160,2013-01-14 18:55:00
11:15 AM,30.2,28.4,93,30.54,5.0,SSE,5.8,-,N/A,,Overcast,160,2013-01-14 19:15:00
11:35 AM,30.2,28.4,93,30.53,5.0,SSE,5.8,-,N/A,,Overcast,160,2013-01-14 19:35:00
12:15 PM,32.0,28.4,87,30.53,2.0,South,4.6,-,N/A,,Overcast,170,2013-01-14 20:15:00
12:55 PM,32.0,30.2,93,30.53,1.0,South,3.5,-,N/A,,Mostly Cloudy,170,2013-01-14 20:55:00
1:15 PM,32.0,30.2,93,30.53,1.2,South,4.6,-,N/A,,Clear,170,2013-01-14 21:15:00
1:35 PM,32.0,30.2,93,30.53,1.5,SSE,5.8,-,N/A,,Clear,160,2013-01-14 21:35:00
1:55 PM,32.0,32.0,100,30.53,1.5,South,5.8,-,N/A,,Mostly Cloudy,170,2013-01-14 21:55:00
2:35 PM,32.0,32.0,100,30.54,2.0,South,5.8,-,N/A,,Mostly Cloudy,190,2013-01-14 22:35:00
2:55 PM,32.0,32.0,100,30.53,2.0,SSW,5.8,-,N/A,,Mostly Cloudy,200,2013-01-14 22:55:00
3:15 PM,32.0,32.0,100,30.53,1.8,South,4.6,-,0.01,,Overcast,190,2013-01-14 23:15:00
3:35 PM,32.0,32.0,100,30.53,2.0,South,6.9,-,0.01,,Overcast,180,2013-01-14 23:35:00
3:55 PM,32.0,32.0,100,30.54,3.0,SSE,5.8,-,0.01,,Overcast,160,2013-01-14 23:55:00
4:15 PM,32.0,32.0,100,30.54,2.5,South,3.5,-,0.01,,Overcast,190,2013-01-15 00:15:00
4:35 PM,32.0,32.0,100,30.53,2.0,South,5.8,-,0.01,,Overcast,190,2013-01-15 00:35:00
4:55 PM,32.0,32.0,100,30.53,2.5,South,4.6,-,0.01,,Overcast,190,2013-01-15 00:55:00
5:15 PM,32.0,32.0,100,30.53,3.0,South,4.6,-,N/A,,Overcast,190,2013-01-15 01:15:00
5:35 PM,32.0,32.0,100,30.53,3.0,SSW,4.6,-,N/A,,Overcast,200,2013-01-15 01:35:00
5:55 PM,32.0,32.0,100,30.53,5.0,South,4.6,-,0.01,,Overcast,170,2013-01-15 01:55:00
6:15 PM,32.0,32.0,100,30.54,6.0,South,3.5,-,N/A,,Overcast,170,2013-01-15 02:15:00
6:35 PM,33.8,32.0,93,30.54,4.0,South,4.6,-,N/A,,Overcast,170,2013-01-15 02:35:00
6:55 PM,32.0,32.0,100,30.55,3.0,South,5.8,-,N/A,,Overcast,180,2013-01-15 02:55:00
7:15 PM,32.0,32.0,100,30.56,4.0,SSE,5.8,-,N/A,,Overcast,160,2013-01-15 03:15:00
7:35 PM,32.0,32.0,100,30.55,4.0,South,5.8,-,N/A,,Overcast,180,2013-01-15 03:35:00
7:55 PM,32.0,32.0,100,30.56,3.0,SE,4.6,-,N/A,,Overcast,140,2013-01-15 03:55:00
8:15 PM,32.0,32.0,100,30.56,5.0,SSE,3.5,-,N/A,,Overcast,160,2013-01-15 04:15:00
8:35 PM,32.0,32.0,100,30.56,5.0,SSE,4.6,-,N/A,,Overcast,150,2013-01-15 04:35:00
8:55 PM,32.0,32.0,100,30.56,5.0,SE,4.6,-,N/A,,Overcast,140,2013-01-15 04:55:00
9:15 PM,33.8,32.0,93,30.56,5.0,SSE,3.5,-,N/A,,Overcast,150,2013-01-15 05:15:00
9:35 PM,33.8,32.0,93,30.56,7.0,South,3.5,-,N/A,,Overcast,180,2013-01-15 05:35:00
9:55 PM,33.8,32.0,93,30.56,6.0,Calm,Calm,-,N/A,,Overcast,0,2013-01-15 05:55:00
10:15 PM,33.8,32.0,93,30.56,6.0,SSW,3.5,-,N/A,,Overcast,210,2013-01-15 06:15:00
10:35 PM,33.8,32.0,93,30.56,5.0,Calm,Calm,-,N/A,,Overcast,0,2013-01-15 06:35:00
10:55 PM,33.8,32.0,93,30.57,5.0,Calm,Calm,-,N/A,,Overcast,0,2013-01-15 06:55:00
11:35 PM,32.0,32.0,100,30.58,5.0,Calm,Calm,-,N/A,,Overcast,0,2013-01-15 07:35:00
11:55 PM,32.0,32.0,100,30.58,4.0,Calm,Calm,-,N/A,,Overcast,0,2013-01-15 07:55:00